This is the latest recevied weather packets stored in our database for station/object N5CNB. If no packets are shown the sender has not sent any weather packets the latest 1 day(s).
| Time | Temp. | Humidity | Pressure | Rain* | Wind** | Luminosity | Snow |
|---|---|---|---|---|---|---|---|
| 1778086821 | 26.67° C | 83% | 1011.6 hPa | 0 mm | - | - | - |
| 1778085904 | 26.67° C | 82% | 1011.7 hPa | 0 mm | - | - | - |
| 1778077826 | 25° C | 86% | 1010.3 hPa | 0 mm | - | - | - |
| 1778076906 | 24.44° C | 87% | 1009.9 hPa | 0 mm | - | - | - |
| 1778074218 | 23.89° C | 88% | 1009.9 hPa | 0 mm | - | - | - |
| 1778070618 | 23.33° C | 90% | 1009.9 hPa | 0 mm | - | - | - |
| 1778067017 | 23.33° C | 89% | 1009.2 hPa | 0 mm | - | - | - |
| 1778062519 | 23.89° C | 89% | 1008.3 hPa | 0 mm | - | - | - |
| 1778058916 | 23.33° C | 89% | 1008.4 hPa | 0 mm | - | - | - |
| 1778058023 | 23.33° C | 89% | 1008.3 hPa | 0 mm | - | - | - |
| 1778054417 | 23.89° C | 88% | 1008.5 hPa | 0 mm | - | - | - |
| 1778051708 | 23.89° C | 88% | 1009.2 hPa | 0 mm | - | - | - |
| 1778049918 | 23.89° C | 87% | 1009.3 hPa | 0 mm | - | - | - |
| 1778046328 | 24.44° C | 87% | 1009.4 hPa | 0 mm | - | - | - |
| 1778045422 | 24.44° C | 86% | 1009.4 hPa | 0 mm | - | - | - |
| 1778043631 | 24.44° C | 86% | 1009.4 hPa | 0 mm | - | - | - |
| 1778042711 | 24.44° C | 86% | 1009.5 hPa | 0 mm | - | - | - |
| 1778041815 | 24.44° C | 86% | 1009.3 hPa | 0 mm | - | - | - |
| 1778040047 | 24.44° C | 85% | 1009 hPa | 0 mm | - | - | - |
| 1778039124 | 24.44° C | 85% | 1009.2 hPa | 0 mm | - | - | - |
| 1778038211 | 24.44° C | 85% | 1009 hPa | 0 mm | - | - | - |
| 1778037333 | 25° C | 85% | 1008.9 hPa | 0 mm | - | - | - |
| 1778036420 | 25° C | 85% | 1008.7 hPa | 0 mm | - | - | - |
| 1778035526 | 25° C | 84% | 1008.6 hPa | 0 mm | - | - | - |
| 1778034627 | 25° C | 84% | 1008.3 hPa | 0 mm | - | - | - |
* Rain latest hour (hover to see other rain measurements)
** Current wind speed in m/s (hover to see current wind gust speed)